Location: Carri�res
(48.9069°N, 2.1792°E)
Time: 22:57:51
(UTC+00:00)

deb Kosmos- 1898 - Pass Details

Date: 31 July 2021
Orbit: 732 x 754 km, 74.0° (Epoch: 27 September)

Event Time Altitude Azimuth Distance (km) Brightness Sun altitude
Exits shadow 02:57:50 16° 228° (SW) 1,848 ? -11.9°
Maximum altitude 03:01:41 50° 299° (WNW) 948 ? -11.4°
Drops below altitude 10° 03:06:42 10° 15° (NNE) 2,280 ? -10.8°
Sets 03:09:09 0° 21° (NNE) 3,212 ? -10.6°
